Change the Weather History Date:

Sunday, November 18, 2012

  Actual Average Record
Temperature  
Mean Temperature 62 °F -  
Max Temperature 72 °F 66 °F 96 °F (2008)
Min Temperature 50 °F 33 °F 21 °F (1958)
Degree Days  
Heating Degree Days 4    
Growing Degree Days 12 (Base 50)    
Moisture  
Dew Point 38 °F    
Average Humidity 44    
Maximum Humidity 62    
Minimum Humidity 30    
Precipitation  
Precipitation 0.00 in - - ()
Sea Level Pressure  
Sea Level Pressure 30.04 in    
Wind  
Wind Speed 5 mph (ESE)    
Max Wind Speed 12 mph    
Max Gust Speed -    
Visibility 10 miles    
Events      
Averages and records for this station are not official NWS values.
T = Trace of Precipitation, MM = Missing Value Source: NWS Daily Summary

Daily Weather History Graph

Daily Weather History Graph

Search for Another Location

Airport or City:

Trip Planner

Search our weather history database for the weather conditions in past years. The results will help you decide how hot, cold, wet, or windy it might be!

Date:

Astronomy

Nov. 18, 2012 Rise Set
Actual Time 6:52 AM MST 5:15 PM MST
Civil Twilight 6:25 AM MST 5:41 PM MST
Nautical Twilight 5:55 AM MST 6:11 PM MST
Astronomical Twilight 5:26 AM MST 6:41 PM MST
Moon 11:24 AM MST (11/18) 10:33 PM MST (11/18)
Length of Visible Light 11h 15m
Length of Day
10h 23m
Waxing Crescent, 31% of the Moon is Illuminated
Nov 18
Waxing Crescent
Nov 20
First Quarter
Nov 28
Full
Dec 6
Last Quarter
Dec 13
New

Hourly Weather History & Observations

Time (MST) Temp. Dew Point Humidity Pressure Visibility Wind Dir Wind Speed Gust Speed Precip Events Conditions
12:51 AM 55.9 °F 26.1 °F 32% 30.03 in 10.0 mi South 3.5 mph - N/A   Scattered Clouds
1:51 AM 57.9 °F 32.0 °F 37% 30.03 in 10.0 mi East 4.6 mph - N/A   Overcast
2:51 AM 59.0 °F 46.0 °F 62% 30.01 in 10.0 mi East 10.4 mph - N/A   Mostly Cloudy
3:51 AM 57.9 °F 39.0 °F 49% 30.00 in 10.0 mi East 11.5 mph - N/A   Mostly Cloudy
4:51 AM 57.9 °F 43.0 °F 58% 30.00 in 10.0 mi East 9.2 mph - N/A   Mostly Cloudy
5:51 AM 53.1 °F 39.9 °F 61% 30.05 in 10.0 mi West 4.6 mph - N/A   Scattered Clouds
6:51 AM 51.1 °F 33.1 °F 50% 30.06 in 10.0 mi WSW 3.5 mph - N/A   Clear
7:51 AM 51.1 °F 33.1 °F 50% 30.09 in 10.0 mi East 3.5 mph - N/A   Mostly Cloudy
8:51 AM 59.0 °F 41.0 °F 51% 30.09 in 10.0 mi ESE 3.5 mph - N/A   Clear
9:51 AM 62.1 °F 45.0 °F 53% 30.09 in 10.0 mi SSE 5.8 mph - N/A   Partly Cloudy
10:51 AM 64.9 °F 44.1 °F 47% 30.07 in 10.0 mi SE 5.8 mph - N/A   Clear
11:51 AM 68.0 °F 39.0 °F 35% 30.04 in 10.0 mi Calm Calm - N/A   Clear
12:51 PM 69.1 °F 41.0 °F 36% 30.01 in 10.0 mi ESE 4.6 mph - N/A   Clear
1:51 PM 72.0 °F 39.9 °F 31% 29.99 in 10.0 mi ENE 3.5 mph - N/A   Clear
2:51 PM 72.0 °F 39.0 °F 30% 29.98 in 10.0 mi Calm Calm - N/A   Clear
3:51 PM 72.0 °F 39.0 °F 30% 29.98 in 10.0 mi South 3.5 mph - N/A   Clear
4:51 PM 71.1 °F 37.9 °F 30% 29.99 in 10.0 mi SSE 3.5 mph - N/A   Clear
5:51 PM 66.0 °F 37.9 °F 36% 30.01 in 10.0 mi Calm Calm - N/A   Mostly Cloudy
6:51 PM 63.0 °F 36.0 °F 37% 30.04 in 10.0 mi North 3.5 mph - N/A   Overcast
7:51 PM 61.0 °F 36.0 °F 39% 30.06 in 10.0 mi Variable 4.6 mph - N/A   Clear
8:51 PM 57.0 °F 36.0 °F 45% 30.06 in 10.0 mi Calm Calm - N/A   Partly Cloudy
9:51 PM 53.1 °F 34.0 °F 48% 30.07 in 10.0 mi Calm Calm - N/A   Clear
10:51 PM 52.0 °F 36.0 °F 54% 30.07 in 10.0 mi South 4.6 mph - N/A   Clear
11:51 PM 50.0 °F 37.0 °F 61% 30.10 in 10.0 mi Calm Calm - N/A   Mostly Cloudy